Starlink 31181

operational
NORAD ID: 58746 Int'l Des: 2024-005 Owner: SPXS Country: US Constellation: starlink
LEOCIRCULAR

Über Starlink 31181

Beschreibung wird geladen...

Live-Position

3D-Globus wird geladen...

Nächste Überflüge

Höhenverlauf

Altitude vs Time

uPlot chart will show altitude changes over time

Zweizeiliger Elementsatz

1 58746U 24005U 25350.85542053 .00001976 00000-0 81329-4 0 9998
2 58746 43.0015 175.3219 0001269 273.6891 86.3815 15.27570611109610
Epoch: 16. Dez. 2025 • Age: 15 hours

Aktueller Status

Höhe 495.0 km
Geschwindigkeit 7.62 km/s
Subsatellitenpunkt -41.83°S, 165.59°W
Startdatum 7. Jan. 2024
Alter 1.9 years
Typ internet

Technische Details

Klassifizierung Payload
Masse 730.00 kg
Trockenmasse 700.00 kg
Gesamtmasse 730.00 kg
Länge 0.30 m
Durchmesser 4.10 m
Spannweite 29.00 m
Form Box + pan
Hersteller SPXS
Bus-Typ Starlink V2M
Phasenstatus In Orbit
Besitzer/Staat SPXS/US

Große Konstellationen

Loading constellations...